User: anonymous
Location: Holmes Observatory
(37.1039°N, 122.0513°W)
Time: 01:05:50
(UTC-07:00)
Language:

Cosmos 921 Rocket - Orbit

View from above orbital plane
View from above orbital plane
View from above satellite
View from above satellite

Ground track
Ground track

The orbit data is extracted from the following two-line orbital elements,

1 10096U 77055B   14105.99926848  .00000703  00000-0  78114-4 0  3917
2 10096 075.8351 255.8302 0043771 275.8092 223.1237 14.87721489989969
Epoch (UTC): 15 April 2014 23:58:56
Eccentricity: 0.0043771
inclination: 75.8351°
perigee height: 574 km
apogee height: 635 km
right ascension of ascending node: 255.8302°
argument of perigee: 275.8092°
revolutions per day: 14.87721489
mean anomaly at epoch: 223.1237°
orbit number at epoch: 98996

The dashed part of the orbit path shows where the satellite is in the earth's shadow,  

DLR